#timestamp,LO_Frequency,Hit,StdDev 
1606100415.1,286046999.9,N
1606100435.8,286047001.1,N
1606100455.7,286047001.0,N
1606100475.5,286047000.9,N
1606100495.3,286047000.2,N
1606100515.2,286046999.8,N
1606100535.9,286046999.9,N
1606100555.7,286047002.6,N
1606100575.6,286047002.2,N
1606100595.4,286047002.2,N
1606100615.2,286047002.6,N
1606100635.1,286047002.4,N
1606100636.0,286047002.4,N
1606100655.8,286047000.0,N
1606100675.6,286047000.5,N
1606100695.5,286047000.9,N
1606100715.3,286046999.9,N
1606100735.1,286046999.9,N
1606100755.9,286047002.2,N
1606100775.7,286047002.3,N
1606100795.5,286047002.6,N
1606100815.3,286047002.0,N
1606100835.2,286047002.5,N
1606100855.0,286047002.2,N
1606100855.9,286047002.2,N
1606100875.7,286047002.2,N
1606100895.6,286047002.7,N
1606100915.4,286047000.6,N
1606100935.2,286047000.6,N
1606100955.1,286046999.7,N
1606100956.0,286046999.7,N
1606100975.8,286047002.7,N
1606100995.6,286046999.9,N
1606101015.5,286047000.3,N
1606101035.3,286047002.3,N
1606101055.1,286047002.4,N
1606101075.9,286047001.6,N
1606101095.7,286047001.6,N
1606101115.5,286047001.9,N
1606101135.4,286046999.8,N
1606101155.2,286047002.2,N
1606101175.0,286047002.5,N
1606101175.9,286047002.5,N
1606101195.8,286047002.4,N
1606101215.6,286047001.4,N
1606101235.4,286047003.8,Y
1606101255.3,286047002.3,P
1606101275.1,286047002.3,P
1606101295.8,286046999.8,N
1606101315.7,286046998.2,N
1606101335.5,286046998.5,N
1606101355.3,286046996.5,N
1606101375.2,286046998.6,N
1606101395.9,286047001.0,N
1606101415.7,286046998.6,N
1606101435.6,286046998.8,N
1606101455.4,286047000.8,N
1606101475.2,286047000.8,N
1606101495.1,286046998.6,N
1606101496.0,286046998.6,N
1606101515.8,286046999.0,N
1606101535.6,286046999.3,N
1606101555.5,286046998.8,N
1606101575.3,286046999.3,N
1606101595.1,286046996.5,N
1606101615.9,286046999.5,N
1606101635.7,286046997.1,N
1606101655.5,286046996.7,N
1606101675.4,286046997.0,N
1606101695.2,286046997.0,N
1606101715.0,286046997.4,N
1606101715.9,286046997.4,N
1606101735.8,286046996.8,N
1606101755.6,286046997.4,N
1606101775.4,286046997.5,N
1606101795.3,286046997.2,N
1606101815.1,286046997.0,N
1606101816.0,286046997.0,N
1606101835.8,286046997.7,N
1606101855.7,286046995.1,Y
1606101875.5,286046998.6,P
1606101895.3,286046998.7,P
1606101915.2,286046998.6,P
1606101935.9,286047000.2,N
1606101955.7,286047002.7,Y
1606101975.6,286047002.0,P
1606101995.4,286046999.8,N
1606102015.2,286047001.0,N
1606102035.1,286046998.3,N
1606102036.0,286046998.3,N
1606102055.8,286047001.1,N
1606102075.6,286047000.4,N
1606102095.5,286047000.3,N
1606102115.3,286047000.9,N
1606102135.1,286047000.8,N
1606102155.9,286047000.6,N
1606102175.7,286047000.1,N
1606102195.5,286047000.5,N
1606102215.4,286046999.8,N
1606102235.2,286047000.0,N
1606102255.0,286047002.3,N
1606102255.9,286047002.3,N
1606102275.8,286047002.5,N
1606102295.6,286047002.0,N
1606102315.4,286047002.2,N
1606102335.3,286047002.2,N
1606102355.1,286047001.6,N
1606102356.0,286047001.6,N
1606102375.8,286047001.8,N
1606102395.7,286047002.6,N
1606102415.5,286047002.2,N
1606102435.3,286047001.9,N
1606102455.2,286047002.2,N
1606102475.9,286047001.4,N
1606102495.7,286047003.9,Y
1606102515.6,286047002.6,P
1606102535.4,286047002.6,P
1606102555.2,286047002.5,P
1606102575.1,286047001.9,N
1606102576.0,286047001.9,Y
1606102595.8,286047000.4,P
1606102615.6,286047000.4,N
1606102635.5,286047011.9,P
1606102655.3,286047000.5,N
1606102675.1,286047000.6,N
1606102695.9,286047000.6,N
1606102715.7,286047000.6,N
1606102735.5,286047000.9,N
1606102755.4,286046998.1,N
1606102775.2,286046999.2,N
1606102795.0,286046999.3,N
1606102795.9,286046999.3,N
1606102815.8,286046998.3,N
1606102835.6,286047000.8,N
1606102855.4,286046998.2,N
1606102875.3,286047000.7,N
1606102895.1,286046999.6,N
1606102915.8,286046999.2,N
1606102935.7,286046998.5,N
1606102955.5,286046999.4,N
1606102975.3,286046999.4,N
1606102995.2,286046996.5,N
1606103015.9,286046997.0,N
1606103035.7,286046998.7,N
1606103055.6,286046996.5,N
1606103075.4,286046998.3,N
1606103095.2,286046998.5,N
1606103115.1,286046998.3,N
1606103116.0,286046998.3,N
1606103135.8,286046998.5,N
1606103155.6,286047000.7,N
1606103175.5,286046998.1,N
1606103195.3,286046998.2,N
1606103215.1,286047000.8,N
1606103235.9,286046998.3,N
1606103255.7,286046999.3,N
1606103275.5,286046999.4,N
1606103295.4,286046998.5,N
1606103315.2,286046998.1,N
1606103335.0,286047000.6,N
1606103335.9,286047000.6,N
1606103355.8,286047001.0,N
1606103375.6,286046998.1,N
1606103395.4,286047000.6,N
1606103415.3,286047001.0,N
1606103435.1,286047001.2,N
1606103455.8,286046998.1,N
1606103475.7,286046998.1,N
1606103495.5,286046998.7,N
1606103515.3,286046998.7,N
1606103535.2,286046998.3,N
1606103555.0,286046998.8,N
1606103555.9,286046998.8,N
1606103575.7,286046999.2,N
1606103595.6,286046996.9,N
1606103615.4,286046999.2,N
1606103635.2,286046999.4,N
1606103655.1,286046998.2,N
1606103656.0,286046998.2,N
1606103675.8,286046998.7,N
1606103695.6,286046998.9,N
1606103715.5,286046999.6,N
1606103735.3,286046998.9,N
1606103755.1,286046999.6,N
1606103775.9,286046999.6,N
1606103795.7,286046998.8,N
1606103815.5,286046999.3,N
1606103835.4,286046998.3,N
1606103855.2,286046998.8,N
1606103875.0,286046996.6,Y
1606103876.0,286046996.6,P
1606103895.8,286046999.1,N
1606103915.6,286046999.1,N
1606103935.5,286046996.5,Y
1606103955.3,286047000.7,P
1606103975.1,286047000.5,N
1606103995.9,286047000.6,N
